Location: Krakow
(50.0830°N, 19.9170°E)
Time: 11:03:25
(UTC+01:00)

Transit 2A - Pass Details

Date: 11 February 2023
Orbit: 591 x 964 km, 66.7° (Epoch: 21 March)

Event Time Altitude Azimuth Distance (km) Brightness Sun altitude
Rises 19:44:12 0° 311° (NW) 3,347 10.2 -28.1°
Reaches altitude 10° 19:47:35 10° 332° (NNW) 2,490 9.1 -28.6°
Maximum altitude 19:51:10 16° 10° (N) 2,138 8.3 -29.2°
Enters shadow 19:51:37 16° 16° (NNE) 2,153 8.3 -29.3°
Drops below altitude 10° 19:54:53 10° 48° (NE) 2,621 - -29.8°
Sets 19:58:35 0° 69° (ENE) 3,612 - -30.4°
